USA 40 R/B DEB, 23361

Orbit data source: Space-Track

USA 40 R/B DEB, 23361 is space debris originally from a launch on Tue, 08 Aug 1989 UTC launched from the Air Force Eastern Test Range (AFETR). Debris objects in space refer to the collection of defunct objects orbiting the Earth. Examples of debris include non-operational satellites, rocket bodies, and fragments generated from explosions, collisions, or faulty payload assembly.

Loading next visibility...
Identifier
23361, 1989-061AH
Orbit
Active
Country
Flag of USUS
Related business
Manufacturer
Unknown
Mission
Spacecraft
Bus & Motor
Unknown
Mass
Unknown
Launch date (UTC)
1989-08-08 (37 years ago)
Launch vehicle
Unknown
Launch site
Air Force Eastern Test Range (AFETR)
Object type
Payload
Rocket body
Debris
Shape & HBR
Unknown shape, 0.1 m
Radar Cross Section
Small (<0.1 m²)

Expand to show TLE details & history
Last TLE update: 1 day ago

TLE from 1 day ago
0 USA 40 R/B DEB
1 23361U 89061AH  26093.70989960  .00018963  00000-0  96045-2 0  9990
2 23361  56.9887 205.9324 2698387 185.7214 170.5541  9.53142250 23229
Epoch: 2026-04-03T17:02Z
TLE epoch observation values (Epoch: 2026-04-03T17:02:15.325Z)
Latitude
-0.00001°
Longitude
118.32842°
Altitude
5,533.465 km
Speed
4.952 km/s
True Right ascension
13h 43m 43s
True Declination
0° 00' 00"
Sunlit
Object was in full shadow at epoch
Visualization orbit readout
Latitude
Unknown
Longitude
Unknown
Altitude
Unknown
Speed
Unknown
Apparent Right ascension
Unknown
Apparent Declination
Unknown
Sunlit
N/A
Visualization observer readout
Local Sidereal Time
23:10:20
Azimuth
Unknown
Elevation
Unknown
Doppler factor
Unknown
Orbital elements
Apogee altitude
5,553.469 km
Perigee altitude
482.574 km
Semi-major axis
9,396.159 km
Eccentricity
0.26984
Inclination
56.9887°
RAAN
205.9324°
Arg. of periapsis
185.7214°
True anomaly
174.3526°
Mean anomaly
170.5541°
Eccentric anomaly
172.55689°
Mean motion
2.38297 °/min
Orbital period
151.07 mins
BSTAR
0.0096045
Loading maneuver chart data...
Computing Atmospheric mass density...
Loading historical data...
Loading historical data...
Loading historical data...
Loading historical data...
Loading historical data...
Loading historical data...
Loading historical data...

Documentation

Showing up to 5 results
|